• In Denmark
  • List of Countries
  • For 7 days
  • Water Temperature
  • Satellite Maps
  • Weather Map
  • Weather Widgets
  • user-avatar
    Login

    Hourly Weather Bahar

    Today, 21 August, Tuesday

    Time Temperature Precipitation Wind Pressure Humidity
    00:00 +27°C° 0.1 mm 3 mps 697 mmHg 36%
    01:00 +27°C° 0.1 mm 4 mps 697 mmHg 36%
    02:00 +26°C° 0.1 mm 4 mps 697 mmHg 36%
    03:00 +26°C° 0 mm 5 mps 698 mmHg 41%
    04:00 +24°C° 0 mm 6 mps 698 mmHg 46%
    05:00 +23°C° 0 mm 7 mps 699 mmHg 53%
    06:00 +23°C° 0.1 mm 7 mps 699 mmHg 55%
    07:00 +24°C° 0.1 mm 7 mps 699 mmHg 57%
    08:00 +24°C° 0.1 mm 8 mps 699 mmHg 59%
    09:00 +24°C° 0.1 mm 7 mps 700 mmHg 57%
    10:00 +26°C° 0.1 mm 6 mps 700 mmHg 55%
    11:00 +26°C° 0.1 mm 5 mps 700 mmHg 53%
    12:00 +27°C° 0 mm 5 mps 700 mmHg 50%
    13:00 +28°C° 0 mm 4 mps 700 mmHg 48%
    14:00 +28°C° 0 mm 4 mps 701 mmHg 45%
    15:00 +28°C° 0.1 mm 4 mps 700 mmHg 46%
    16:00 +28°C° 0.1 mm 5 mps 700 mmHg 47%
    17:00 +27°C° 0.1 mm 5 mps 700 mmHg 49%
    18:00 +26°C° 0.1 mm 4 mps 701 mmHg 52%
    19:00 +25°C° 0.1 mm 4 mps 701 mmHg 55%
    20:00 +23°C° 0.1 mm 4 mps 701 mmHg 58%
    21:00 +22°C° 0.3 mm 4 mps 701 mmHg 59%
    22:00 +22°C° 0.3 mm 3 mps 701 mmHg 61%
    23:00 +21°C° 0.3 mm 3 mps 701 mmHg 63%

    Tomorrow, 22 August, Wednesday

    Time Temperature Precipitation Wind Pressure Humidity
    00:00 +21°C° 0.2 mm 3 mps 701 mmHg 64%
    01:00 +21°C° 0.2 mm 2 mps 700 mmHg 65%
    02:00 +20°C° 0.2 mm 2 mps 700 mmHg 67%
    03:00 +20°C° 0.1 mm 2 mps 700 mmHg 68%
    04:00 +21°C° 0.1 mm 1 mps 700 mmHg 69%
    05:00 +20°C° 0.1 mm 1 mps 700 mmHg 70%
    06:00 +21°C° 0.1 mm 1 mps 700 mmHg 66%
    07:00 +22°C° 0.1 mm 1 mps 700 mmHg 63%
    08:00 +23°C° 0.1 mm 2 mps 701 mmHg 60%
    09:00 +23°C° 0 mm 2 mps 701 mmHg 57%
    10:00 +24°C° 0 mm 2 mps 701 mmHg 54%
    11:00 +25°C° 0 mm 2 mps 701 mmHg 50%
    12:00 +26°C° 0 mm 2 mps 701 mmHg 48%
    13:00 +27°C° 0 mm 2 mps 700 mmHg 45%
    14:00 +28°C° 0 mm 2 mps 700 mmHg 43%
    15:00 +28°C° 0.1 mm 2 mps 700 mmHg 43%
    16:00 +27°C° 0.1 mm 2 mps 701 mmHg 42%
    17:00 +27°C° 0.1 mm 2 mps 701 mmHg 42%
    18:00 +26°C° 0.1 mm 2 mps 701 mmHg 45%
    19:00 +25°C° 0.1 mm 2 mps 701 mmHg 49%
    20:00 +24°C° 0.1 mm 2 mps 701 mmHg 52%
    21:00 +23°C° 0 mm 2 mps 701 mmHg 54%
    22:00 +21°C° 0 mm 2 mps 701 mmHg 56%
    23:00 +21°C° 0 mm 2 mps 701 mmHg 57%

    Day after tomorrow, 23 August, Thursday

    Time Temperature Precipitation Wind Pressure Humidity
    00:00 +20°C° 0 mm 2 mps 700 mmHg 60%
    01:00 +19°C° 0 mm 2 mps 700 mmHg 62%
    02:00 +20°C° 0 mm 1 mps 700 mmHg 64%
    03:00 +19°C° 0 mm 1 mps 700 mmHg 66%
    04:00 +19°C° 0 mm 1 mps 700 mmHg 67%
    05:00 +18°C° 0 mm 1 mps 700 mmHg 69%
    06:00 +19°C° 0 mm 2 mps 700 mmHg 63%
    07:00 +21°C° 0 mm 2 mps 700 mmHg 57%
    08:00 +24°C° 0 mm 2 mps 700 mmHg 50%
    09:00 +25°C° 0 mm 2 mps 700 mmHg 46%
    10:00 +26°C° 0 mm 3 mps 700 mmHg 42%
    11:00 +27°C° 0 mm 3 mps 700 mmHg 38%
    12:00 +28°C° 0 mm 3 mps 699 mmHg 36%
    13:00 +29°C° 0 mm 3 mps 699 mmHg 33%
    14:00 +29°C° 0 mm 2 mps 699 mmHg 31%
    15:00 +29°C° 0 mm 2 mps 699 mmHg 31%
    16:00 +29°C° 0 mm 2 mps 699 mmHg 30%
    17:00 +29°C° 0 mm 1 mps 699 mmHg 30%
    18:00 +27°C° 0 mm 1 mps 699 mmHg 34%
    19:00 +26°C° 0 mm 2 mps 699 mmHg 38%
    20:00 +24°C° 0 mm 2 mps 699 mmHg 42%
    21:00 +23°C° 0 mm 2 mps 699 mmHg 44%
    22:00 +23°C° 0 mm 1 mps 699 mmHg 46%
    23:00 +22°C° 0 mm 1 mps 698 mmHg 48%

    24 August, Friday

    Time Temperature Precipitation Wind Pressure Humidity
    00:00 +22°C° 0 mm 1 mps 698 mmHg 50%
    01:00 +20°C° 0 mm 2 mps 698 mmHg 52%
    02:00 +20°C° 0 mm 2 mps 697 mmHg 53%
    03:00 +19°C° 0 mm 2 mps 697 mmHg 54%
    04:00 +19°C° 0 mm 2 mps 697 mmHg 55%
    05:00 +19°C° 0 mm 2 mps 697 mmHg 56%
    06:00 +21°C° 0 mm 2 mps 698 mmHg 50%
    07:00 +23°C° 0 mm 2 mps 698 mmHg 45%
    08:00 +25°C° 0 mm 2 mps 698 mmHg 39%
    09:00 +27°C° 0 mm 3 mps 698 mmHg 35%
    10:00 +28°C° 0 mm 3 mps 698 mmHg 32%
    11:00 +29°C° 0 mm 3 mps 698 mmHg 29%
    12:00 +30°C° 0 mm 3 mps 698 mmHg 27%
    13:00 +30°C° 0 mm 3 mps 698 mmHg 26%
    14:00 +31°C° 0 mm 2 mps 697 mmHg 24%
    15:00 +31°C° 0 mm 2 mps 698 mmHg 25%
    16:00 +31°C° 0 mm 2 mps 698 mmHg 25%
    17:00 +30°C° 0 mm 2 mps 698 mmHg 25%
    18:00 +29°C° 0 mm 2 mps 698 mmHg 29%
    19:00 +27°C° 0 mm 2 mps 698 mmHg 33%
    20:00 +25°C° 0 mm 2 mps 698 mmHg 37%
    21:00 +24°C° 0 mm 2 mps 698 mmHg 38%
    22:00 +24°C° 0 mm 2 mps 698 mmHg 39%
    23:00 +24°C° 0 mm 2 mps 698 mmHg 40%

    25 August, Saturday

    Time Temperature Precipitation Wind Pressure Humidity
    00:00 +23°C° 0 mm 2 mps 697 mmHg 41%
    01:00 +21°C° 0 mm 2 mps 697 mmHg 42%
    02:00 +21°C° 0 mm 2 mps 697 mmHg 44%
    03:00 +20°C° 0 mm 2 mps 697 mmHg 44%
    04:00 +20°C° 0 mm 2 mps 696 mmHg 45%
    05:00 +19°C° 0 mm 2 mps 696 mmHg 45%
    06:00 +21°C° 0 mm 3 mps 696 mmHg 41%
    07:00 +24°C° 0 mm 3 mps 697 mmHg 37%
    08:00 +26°C° 0 mm 3 mps 697 mmHg 32%
    09:00 +28°C° 0 mm 3 mps 696 mmHg 30%
    10:00 +29°C° 0 mm 4 mps 696 mmHg 27%
    11:00 +30°C° 0 mm 4 mps 696 mmHg 25%
    12:00 +32°C° 0 mm 4 mps 696 mmHg 24%
    13:00 +33°C° 0 mm 4 mps 695 mmHg 23%
    14:00 +33°C° 0 mm 4 mps 695 mmHg 22%
    15:00 +33°C° 0 mm 3 mps 695 mmHg 24%
    16:00 +31°C° 0 mm 2 mps 695 mmHg 25%
    17:00 +31°C° 0 mm 1 mps 695 mmHg 27%
    18:00 +29°C° 0 mm 2 mps 695 mmHg 30%
    19:00 +28°C° 0 mm 2 mps 696 mmHg 32%
    20:00 +26°C° 0 mm 2 mps 696 mmHg 35%
    21:00 +26°C° 0 mm 2 mps 695 mmHg 36%
    22:00 +25°C° 0 mm 2 mps 695 mmHg 38%
    23:00 +25°C° 0 mm 2 mps 695 mmHg 39%

    26 August, Sunday

    Time Temperature Precipitation Wind Pressure Humidity
    00:00 +24°C° 0 mm 2 mps 695 mmHg 40%
    01:00 +24°C° 0 mm 2 mps 694 mmHg 41%
    02:00 +23°C° 0 mm 1 mps 694 mmHg 42%
    03:00 +23°C° 0 mm 1 mps 694 mmHg 42%
    04:00 +23°C° 0 mm 1 mps 694 mmHg 43%
    05:00 +23°C° 0 mm 1 mps 695 mmHg 43%
    06:00 +24°C° 0 mm 2 mps 695 mmHg 41%
    07:00 +25°C° 0 mm 2 mps 695 mmHg 39%
    08:00 +26°C° 0 mm 3 mps 695 mmHg 37%
    09:00 +26°C° 0 mm 3 mps 696 mmHg 37%
    10:00 +26°C° 0 mm 4 mps 696 mmHg 36%
    11:00 +27°C° 0 mm 5 mps 696 mmHg 36%
    12:00 +27°C° 0 mm 5 mps 696 mmHg 36%
    13:00 +27°C° 0 mm 6 mps 696 mmHg 37%
    14:00 +27°C° 0 mm 7 mps 696 mmHg 37%
    15:00 +26°C° 0 mm 7 mps 697 mmHg 39%
    16:00 +26°C° 0 mm 6 mps 697 mmHg 41%
    17:00 +24°C° 0 mm 6 mps 697 mmHg 42%
    18:00 +23°C° 0 mm 5 mps 698 mmHg 45%
    19:00 +22°C° 0 mm 4 mps 698 mmHg 47%
    20:00 +21°C° 0 mm 4 mps 698 mmHg 50%
    21:00 +21°C° 0 mm 3 mps 698 mmHg 52%
    22:00 +20°C° 0 mm 2 mps 698 mmHg 54%
    23:00 +19°C° 0 mm 2 mps 697 mmHg 56%
    Show more